Regional Weather Roundup
Issued by NWS

Home | Current Version | Previous Version | Text Only | Print | Product List | Glossary Off
Versions: 1 2 3 4 5 6 7 8 9 10 11 12 13 14 15 16 17 18 19 20 21 22 23 24 25 26 27 28 29 30 31 32 33 34 35 36 37 38 39 40 41 42 43 44 45 46 47 48 49 50

000
ASUS43 KDMX 100807
RWRIA

WEATHER ROUNDUP FOR IOWA
NATIONAL WEATHER SERVICE DES MOINES IA
300 AM CDT THU JUL 10 2014

NOTE: "FAIR" INDICATES FEW OR NO CLOUDS BELOW 12,000 FEET WITH NO
SIGNIFICANT WEATHER AND/OR OBSTRUCTIONS TO VISIBILITY.

* - THESE STATIONS ARE NOT NWS STATIONS...THUS NOT UNDER NWS
QUALITY CONTROL.  THEY ALSO DO NOT REPORT WEATHER SUCH
AS PRECIPITATION OR FOG.

IAZ001>003-012>014-020>022-031>034-043>046-100900-
   NORTHWEST IOWA

CITY           SKY/WX    TMP DP  RH WIND       PRES   REMARKS
CARROLL *      MOCLDY    59  57  94 S3        30.04S FOG
CHEROKEE *     CLEAR     61  61 100 CALM      30.02S
DENISON *      MOCLDY    63  61  94 CALM      30.01F
LE MARS *      CLEAR     59  59 100 CALM      30.01F
ORANGE CITY *  CLEAR     66  59  77 S3        30.02S
SHELDON *      PTCLDY    59  59 100 SE3       30.01S FOG
SIOUX CITY     CLEAR     62  60  93 E6        30.00F
SPENCER        CLEAR     59  57  93 CALM      30.02F FOG
STORM LAKE *   CLEAR     63  63 100 S7        30.04S
$$

IAZ055>058-069>071-079>083-090>094-100900-
   SOUTHWEST IOWA

CITY           SKY/WX    TMP DP  RH WIND       PRES   REMARKS
ATLANTIC *     CLOUDY    63  59  88 CALM      30.03F
AUDUBON *      CLEAR     61  57  88 CALM      30.05S FOG
CLARINDA *     CLOUDY    68  63  83 S3        30.04F
COUNCIL BLFS * CLEAR     64  64 100 S7        30.00F
CRESTON *      CLEAR     64  59  82 S7        30.06F
HARLAN  *      PTCLDY    63  61  94 CALM      30.06F
LAMONI         CLOUDY    66  60  81 S7        30.06F
SHENANDOAH *   MOCLDY    68  66  94 E5        30.02F
$$

IAZ047>049-059>061-072>074-084-100900-
   CENTRAL IOWA

CITY           SKY/WX    TMP DP  RH WIND       PRES   REMARKS
AMES           CLEAR     62  59  90 SE5       30.04S
ANKENY *       CLEAR     63  59  88 CALM      30.05S
CHARITON *     PTCLDY    63  59  88 SE6       30.06F
DES MOINES     PTCLDY    67  58  72 S8        30.04F
GRINNELL*      CLEAR     63  57  82 S3        30.07S
KNOXVILLE *    CLEAR     63  57  82 S7        30.05S
MARSHALLTOWN   CLEAR     63  58  83 S5        30.05S
PELLA *        CLEAR     63  59  88 S6        30.07F
PERRY *          N/A     61  61 100 S5        30.04S
$$

IAZ004>006-015-016-023>025-035-036-100900-
   NORTH CENTRAL IOWA

CITY           SKY/WX    TMP DP  RH WIND       PRES   REMARKS
ALGONA *       CLOUDY    64  63  94 S6        30.03F
CLARION *      PTCLDY    63  61  94 S5        30.04S
ESTHERVILLE    CLEAR     59  57  93 S3        30.02F
FORT DODGE *   MOCLDY    63  61  94 CALM      30.05R
MASON CITY     CLEAR     58  57  97 S6        30.05F
FOREST CITY *  CLEAR     55  55 100 CALM      30.04S FOG
IOWA FALLS *     N/A     63  59  88 S6        30.06S
$$

IAZ007>011-017>019-026>030-037>042-050>054-066-100900-
   NORTHEAST IOWA

CITY           SKY/WX    TMP DP  RH WIND       PRES   REMARKS
CEDAR RAPIDS   CLEAR     59  57  93 SE5       30.06S
CHARLES CITY * PTCLDY    61  57  88 SE6       30.06S
CLINTON *      PTCLDY    61  57  88 CALM      30.10F
DECORAH *        N/A    N/A N/A N/A MISG        N/A
DUBUQUE        CLOUDY    63  57  81 SE7       30.09S
MONTICELLO *   CLEAR     61  59  94 CALM      30.07S
OELWEIN *      PTCLDY    61  61 100 SE6       30.07S
WATERLOO       PTCLDY    63  57  81 SE3       30.04S
$$

IAZ064-065-067-068-078-100900-
   EAST CENTRAL IOWA

CITY           SKY/WX    TMP DP  RH WIND       PRES   REMARKS
DAVENPORT      CLEAR     62  56  80 SE7       30.09S
IOWA CITY      CLEAR     60  59  96 CALM      30.08S
MT. PLEASANT * CLEAR     59  57  94 S5        30.08F
MUSCATINE *      N/A     59  57  94 CALM      30.08S
QUAD CITIES    CLEAR     59  56  89 CALM      30.08S
$$

IAZ062-063-075>077-085>089-095>099-100900-
   SOUTHEAST IOWA

CITY           SKY/WX    TMP DP  RH WIND       PRES   REMARKS
BURLINGTON     CLEAR     61  60  97 CALM      30.08S
FAIRFIELD *    CLEAR     61  57  88 S6        30.08S
FORT MADISON * CLEAR     64  61  88 S3        30.09F
KEOKUK *       PTCLDY    61  59  94 S3        30.08S
OSKALOOSA *      N/A     61  59  94 S7        30.07S
CENTERVILLE *  CLEAR     59  59 100 SE5       30.09F
OTTUMWA        CLEAR     62  58  86 S6        30.07S
WASHINGTON *   CLEAR     59  59 100 S6        30.08S
$$

ABBREVIATIONS USED IN REMARKS
   TC - TEMPERATURES IN CELSIUS
  WCI - WIND CHILL INDEX
   HX - HEAT INDEX
  VSB - VISIBILITY
$$



USA.gov is the U.S. government's official web portal to all federal, state and local government web resources and services.